Wind_Speed
26 25 23 22 22 22 22 20 18 17 17 17 17 16 15 15 15 15 15 15 14 13 14 14 13 13 13 13 13 12 12 12 12 12 13 14 14 15 16 16 17 19 20 21
27 26 25 25 24 23 22 22 20 19 19 19 18 17 16 15 16 16 16 16 15 15 15 15 14 14 14 14 14 14 14 14 14 14 14 15 15 17 17 18 19 19 20 21
27 26 26 26 26 25 24 22 21 20 20 19 18 18 17 17 16 17 17 18 17 16 16 16 16 16 16 16 15 15 15 15 15 16 17 17 17 18 18 19 19 21 20 21
27 27 27 26 26 25 24 23 22 22 21 20 19 19 19 19 19 19 18 19 19 18 17 17 17 17 17 16 16 16 16 17 18 18 18 19 19 19 20 21 21 21 21 21
29 27 28 30 27 26 26 26 25 24 23 22 21 21 21 20 21 21 20 20 20 20 20 20 19 19 18 18 18 18 19 19 19 20 20 20 20 20 21 22 23 22 22 22
32 28 27 29 28 26 27 28 26 25 24 23 22 23 22 21 21 22 22 22 22 22 22 22 22 21 21 20 20 20 20 21 21 22 22 22 22 22 22 22 23 23 23 23
33 31 30 31 28 27 29 28 26 25 25 24 24 24 23 22 22 23 23 23 24 24 24 24 24 24 23 23 22 22 22 22 23 23 23 23 23 23 23 23 23 23 24 24
33 32 33 32 30 30 30 29 28 27 26 26 25 24 24 24 24 24 24 24 25 25 25 25 26 26 25 25 24 23 23 23 23 24 25 24 24 24 24 24 24 23 24 25
34 34 34 32 31 30 29 30 29 28 28 27 26 26 25 25 25 25 25 25 25 26 26 26 26 26 26 25 25 24 24 24 24 24 24 25 25 25 25 25 24 25 25 25
34 33 33 32 30 29 29 29 28 28 28 27 26 25 25 24 24 25 25 25 25 26 26 26 26 25 25 24 24 24 25 25 26 26 25 25 25 25 26 26 26 26 26 26
33 32 32 31 31 30 30 29 29 28 27 26 26 25 25 25 25 25 25 25 25 26 26 26 26 25 24 24 24 25 25 25 25 26 27 28 27 26 26 26 27 27 27 27
32 31 31 31 30 30 30 30 29 28 27 27 27 26 25 25 25 25 26 25 24 25 25 25 25 26 25 25 25 25 25 24 24 24 24 25 25 26 27 27 28 28 28 28
30 29 29 28 28 29 29 29 28 28 28 27 26 25 24 24 24 25 25 25 25 25 25 25 25 25 25 25 24 24 24 24 24 23 23 23 24 25 25 26 26 26 26 26
29 29 28 28 27 27 27 26 26 26 27 26 25 24 24 23 23 23 23 23 24 23 23 23 23 23 23 22 23 23 23 23 22 21 21 21 22 23 23 24 24 25 25 26
27 28 28 28 28 27 26 25 25 25 25 25 25 24 23 22 22 23 23 22 22 22 22 21 21 21 21 21 21 22 22 21 21 21 21 21 22 22 22 24 25 26 26 27
25 25 25 26 26 26 25 25 25 25 25 25 24 23 23 22 22 22 22 21 22 22 21 20 20 20 20 20 20 20 20 20 20 20 20 21 21 21 22 23 25 25 26 27
24 24 24 23 23 24 24 24 23 22 22 22 22 22 21 20 20 20 19 19 19 19 18 18 17 17 17 17 17 17 17 17 18 19 19 20 21 21 22 23 24 25 26 27
23 24 23 22 23 22 23 23 22 21 20 20 20 20 19 19 18 18 17 17 16 16 15 15 15 15 16 16 16 16 17 18 18 19 20 21 22 23 24 24 25 25 26 27
22 22 21 21 21 21 22 22 20 19 19 19 19 18 17 16 16 16 15 15 14 14 14 14 14 14 14 15 15 16 17 19 19 20 20 21 22 23 23 24 25 26 27 28
21 21 20 20 20 20 20 19 18 18 17 17 16 16 15 14 14 14 14 14 14 13 13 13 14 14 14 14 15 16 17 18 19 20 20 21 21 22 23 24 26 27 28 29
19 19 19 19 19 18 18 18 17 17 16 15 15 14 14 13 12 12 12 13 12 12 12 12 13 13 14 15 15 16 16 17 17 18 20 21 23 24 25 26 27 27 28 29
18 18 19 18 17 17 17 17 16 15 15 14 13 13 12 12 11 11 11 11 11 10 11 12 13 13 14 14 15 16 17 18 19 21 22 23 24 25 25 26 27 28 28 29
18 18 18 18 17 16 16 15 14 14 14 13 13 12 12 11 11 10 9 9 10 10 10 11 11 12 14 15 16 18 19 20 21 22 23 23 24 25 26 27 27 28 28 29
19 19 18 17 16 15 14 14 13 12 12 12 12 11 10 10 10 9 8 8 8 9 10 11 12 14 15 17 18 19 20 21 22 23 24 25 25 26 26 27 27 27 27 27
18 17 17 16 15 14 14 13 12 11 11 11 10 9 9 8 7 7 8 8 9 10 12 13 14 16 18 19 20 21 22 22 23 24 24 24 25 25 26 26 26 26 25 25
17 17 16 16 15 15 13 12 11 11 10 10 9 8 7 7 7 7 9 10 11 13 14 15 17 18 19 20 21 22 23 23 23 23 23 24 24 25 25 25 25 24 24 23
17 16 16 16 15 13 12 11 10 9 9 8 8 7 7 7 8 9 11 12 13 14 16 17 19 20 21 22 23 23 23 23 22 22 23 23 24 24 23 23 22 22 22 21
Wind_Direction
224 227 232 234 234 234 234 231 234 242 244 248 252 255 257 257 257 260 260 260 263 267 269 273 276 275 277 278 275 272 264 257 255 251 247 245 244 245 247 249 251 251 251 250
227 230 232 232 232 233 233 232 234 239 247 249 252 255 258 258 259 260 259 259 263 265 267 271 273 273 273 273 269 267 264 257 254 253 251 250 251 251 252 254 254 256 257 253
228 229 231 232 232 232 234 235 237 242 248 250 251 253 254 256 256 259 258 257 259 261 265 267 269 270 274 274 269 266 263 260 258 256 253 253 255 255 255 257 258 257 258 257
225 227 229 233 232 232 234 236 238 241 247 249 249 251 253 254 254 257 258 258 258 260 263 266 267 270 273 274 271 267 265 263 261 260 258 257 257 256 256 257 258 259 260 259
225 229 232 235 233 233 236 240 242 245 248 251 252 254 255 255 254 254 255 256 257 260 263 266 268 270 271 271 270 268 266 264 263 262 262 262 261 261 261 261 260 260 259 259
226 226 232 239 235 235 238 241 242 246 250 251 252 255 255 254 254 255 255 255 257 260 262 265 267 268 271 270 269 269 268 267 267 265 264 264 264 263 263 264 261 260 261 260
228 229 234 238 238 236 238 241 242 245 247 251 253 254 254 254 255 254 255 255 257 259 260 262 264 266 268 268 267 268 268 269 269 266 265 265 264 262 261 263 264 265 265 263
230 232 237 239 238 236 238 242 245 247 249 251 253 253 254 256 256 254 255 255 257 258 260 261 264 265 266 265 266 267 267 268 269 268 266 265 265 261 262 264 263 265 266 267
230 232 236 239 239 238 240 242 245 247 250 250 252 253 254 255 254 253 254 256 257 258 260 262 264 265 264 265 265 267 268 267 268 269 267 265 264 261 263 263 264 266 266 268
231 234 237 238 237 238 239 240 243 247 249 251 253 253 252 253 253 253 255 256 258 259 259 261 262 262 263 264 264 266 269 269 268 269 267 265 265 265 266 267 266 267 269 268
231 232 234 235 235 238 240 242 244 246 248 249 250 251 251 252 253 254 254 256 257 259 259 260 260 260 262 265 266 267 269 271 269 268 267 265 263 264 266 267 266 266 268 270
229 230 232 234 235 237 239 241 243 245 246 248 250 251 251 251 251 252 252 253 254 257 257 258 259 260 263 266 268 269 270 272 270 269 268 267 263 263 265 268 269 270 271 271
229 229 231 232 234 236 236 238 240 241 243 246 247 248 249 250 250 250 250 252 254 255 257 258 260 262 264 265 266 268 268 269 268 268 269 269 268 268 269 271 271 273 274 274
227 228 229 230 232 233 234 235 237 238 240 242 244 246 248 250 249 249 251 253 254 255 258 260 261 261 262 262 263 264 266 267 267 267 269 271 272 273 272 272 271 273 272 274
225 225 227 229 231 232 233 234 236 237 239 241 242 244 248 250 251 251 252 254 256 257 258 258 259 260 262 264 264 264 264 265 266 268 270 272 275 274 272 272 275 276 277 279
222 222 225 227 229 230 231 232 234 237 239 239 240 243 248 252 252 252 252 253 256 257 256 256 257 260 262 261 260 261 262 264 266 268 270 273 273 272 274 276 279 281 283 285
221 222 224 225 226 226 226 229 233 237 237 236 238 243 246 248 249 249 249 251 252 252 253 254 255 258 259 260 260 261 262 266 268 269 272 273 276 278 280 283 286 288 289 291
222 221 223 224 223 223 225 226 229 234 235 234 236 241 244 246 246 246 245 246 248 248 250 252 255 258 258 258 262 264 266 269 272 274 276 279 281 282 284 287 290 292 293 294
218 218 220 219 218 219 221 222 226 228 229 233 235 238 240 239 238 238 239 240 243 245 248 251 252 256 261 262 264 269 272 273 274 277 280 282 284 286 288 290 291 293 296 297
215 215 215 214 213 215 218 219 220 222 224 226 228 229 230 232 232 235 238 240 242 245 248 252 256 262 266 269 272 276 277 278 280 282 284 287 289 290 292 294 296 297 298 299
204 204 204 205 206 208 209 210 213 216 219 221 221 222 223 225 230 235 238 240 242 246 251 257 263 267 270 273 276 280 283 286 289 292 293 294 295 295 296 297 299 300 301 302
193 193 193 195 196 199 200 202 204 207 210 212 215 216 220 226 233 236 237 241 246 252 259 266 270 273 275 279 282 286 288 292 296 298 298 298 298 298 299 300 301 302 303 303
184 184 184 186 188 190 192 193 195 198 202 204 208 214 219 223 228 233 240 248 254 261 266 271 277 281 284 287 291 293 295 298 299 300 300 300 301 301 301 302 303 303 303 303
176 176 177 180 184 187 188 188 192 195 201 207 209 212 216 222 227 235 246 256 265 272 277 282 287 289 291 294 297 299 300 302 302 302 302 302 302 303 304 305 305 305 305 305
170 172 174 177 179 179 179 181 186 193 197 200 204 207 210 217 229 244 257 268 276 283 287 291 293 294 297 299 301 302 303 303 303 303 303 304 305 305 305 305 305 306 306 305
165 167 170 172 172 174 176 178 184 190 195 198 201 207 219 232 247 262 273 280 284 289 292 295 297 298 299 301 302 303 305 305 306 306 306 306 306 307 307 308 307 307 306 306
160 164 167 168 170 174 180 184 188 191 194 200 212 229 245 258 271 282 287 290 292 294 295 297 299 300 301 302 303 304 305 306 306 307 308 308 308 308 309 308 308 308 308 308
Height
5816 5819 5822 5824 5827 5830 5834 5837 5841 5843 5843 5844 5844 5845 5845 5846 5847 5847 5848 5848 5848 5848 5848 5848 5847 5847 5846 5846 5846 5845 5845 5845 5845 5845 5846 5846 5847 5848 5849 5850 5851 5851 5851 5852
5809 5813 5816 5819 5822 5825 5828 5831 5834 5836 5838 5838 5839 5840 5841 5842 5843 5843 5843 5844 5844 5844 5844 5844 5844 5843 5843 5842 5842 5842 5842 5842 5842 5842 5843 5843 5844 5844 5845 5845 5846 5846 5846 5847
5804 5808 5810 5813 5817 5820 5823 5826 5829 5831 5833 5833 5834 5835 5837 5837 5838 5838 5839 5839 5840 5840 5840 5840 5840 5840 5839 5839 5839 5838 5838 5838 5839 5839 5839 5840 5840 5840 5840 5841 5841 5841 5841 5841
5799 5802 5805 5810 5811 5814 5817 5820 5823 5825 5826 5828 5829 5830 5831 5832 5833 5833 5833 5834 5835 5835 5835 5835 5835 5835 5835 5835 5835 5834 5834 5834 5835 5835 5835 5835 5835 5835 5835 5836 5836 5836 5836 5836
5792 5795 5799 5801 5805 5809 5812 5814 5816 5818 5820 5822 5823 5824 5825 5826 5827 5828 5828 5829 5829 5830 5830 5830 5830 5830 5830 5830 5830 5830 5830 5830 5830 5830 5830 5830 5830 5830 5830 5830 5830 5830 5830 5830
5785 5790 5793 5795 5798 5802 5806 5807 5810 5812 5814 5815 5817 5818 5819 5820 5820 5821 5822 5823 5824 5824 5825 5825 5825 5825 5825 5825 5825 5825 5825 5825 5824 5824 5824 5824 5824 5824 5824 5824 5824 5824 5824 5824
5777 5782 5785 5787 5791 5796 5800 5801 5803 5805 5807 5808 5810 5811 5813 5813 5814 5815 5816 5817 5817 5818 5818 5819 5819 5819 5819 5819 5820 5820 5819 5819 5819 5818 5818 5818 5818 5818 5818 5818 5818 5818 5818 5818
5769 5774 5779 5779 5783 5788 5790 5793 5795 5797 5800 5801 5803 5804 5805 5806 5807 5808 5809 5810 5811 5811 5812 5812 5812 5813 5813 5813 5813 5813 5813 5813 5812 5812 5812 5812 5812 5811 5811 5812 5812 5811 5811 5811
5761 5766 5768 5771 5775 5779 5782 5785 5787 5790 5792 5794 5795 5797 5798 5799 5800 5801 5802 5803 5804 5804 5805 5805 5805 5806 5806 5806 5806 5806 5806 5806 5806 5805 5805 5804 5804 5804 5805 5805 5805 5805 5804 5804
5752 5756 5760 5764 5767 5771 5774 5777 5779 5782 5784 5786 5788 5789 5791 5792 5793 5794 5795 5796 5796 5797 5798 5798 5798 5799 5799 5799 5799 5799 5799 5799 5799 5798 5797 5797 5797 5797 5797 5798 5798 5797 5797 5796
5744 5748 5752 5755 5759 5763 5766 5769 5772 5774 5776 5778 5780 5782 5783 5785 5786 5787 5788 5789 5789 5790 5790 5791 5791 5792 5792 5792 5792 5792 5792 5792 5791 5791 5790 5789 5789 5790 5790 5790 5790 5790 5790 5789
5736 5740 5745 5748 5752 5755 5758 5761 5764 5767 5769 5771 5773 5774 5776 5778 5779 5779 5780 5781 5782 5783 5783 5784 5784 5785 5785 5785 5785 5785 5785 5784 5784 5784 5783 5782 5782 5783 5783 5783 5783 5783 5782 5782
5729 5733 5737 5741 5744 5747 5750 5753 5756 5759 5761 5763 5765 5767 5769 5770 5771 5772 5773 5774 5775 5776 5776 5777 5777 5778 5778 5778 5778 5779 5778 5778 5778 5777 5777 5776 5776 5776 5776 5776 5776 5775 5775 5774
5722 5726 5729 5733 5736 5739 5743 5746 5749 5751 5754 5756 5758 5760 5762 5763 5764 5765 5766 5767 5768 5769 5770 5770 5771 5771 5771 5771 5772 5772 5772 5772 5772 5771 5771 5771 5770 5769 5769 5769 5769 5768 5767 5766
5715 5719 5723 5726 5729 5733 5736 5739 5742 5745 5747 5749 5751 5753 5755 5756 5758 5759 5760 5761 5762 5762 5763 5764 5764 5765 5765 5765 5766 5766 5766 5766 5766 5766 5765 5765 5764 5763 5763 5762 5762 5761 5760 5759
5708 5712 5716 5719 5723 5726 5729 5733 5736 5738 5740 5743 5745 5747 5749 5750 5751 5753 5754 5755 5756 5756 5757 5758 5759 5759 5759 5759 5760 5760 5760 5760 5760 5760 5760 5759 5758 5757 5757 5756 5755 5754 5753 5751
5703 5706 5710 5713 5717 5720 5724 5727 5730 5732 5734 5737 5739 5741 5743 5744 5746 5747 5748 5749 5750 5751 5752 5753 5753 5754 5754 5754 5755 5755 5755 5755 5755 5755 5754 5754 5753 5752 5751 5750 5748 5747 5745 5743
5697 5701 5705 5708 5712 5715 5718 5721 5724 5727 5729 5731 5734 5736 5738 5739 5740 5742 5743 5744 5745 5746 5747 5748 5749 5749 5750 5750 5750 5750 5750 5750 5750 5749 5748 5748 5747 5745 5744 5743 5741 5739 5737 5735
5692 5696 5700 5703 5706 5710 5713 5716 5719 5722 5725 5727 5729 5731 5733 5734 5736 5737 5739 5740 5741 5742 5743 5744 5745 5745 5745 5745 5746 5746 5745 5745 5744 5743 5742 5741 5740 5739 5737 5735 5734 5731 5729 5727
5688 5692 5695 5699 5703 5706 5709 5712 5715 5718 5721 5723 5725 5727 5729 5731 5732 5733 5735 5736 5737 5738 5739 5740 5740 5741 5741 5741 5741 5740 5740 5739 5738 5737 5736 5735 5733 5732 5730 5728 5726 5723 5721 5718
5684 5688 5692 5696 5699 5703 5706 5709 5712 5715 5718 5720 5722 5724 5726 5728 5729 5730 5731 5732 5733 5734 5735 5736 5736 5737 5736 5736 5736 5735 5734 5733 5732 5731 5730 5728 5726 5724 5722 5720 5718 5715 5712 5710
5682 5686 5690 5693 5697 5700 5703 5707 5710 5712 5715 5718 5720 5722 5724 5725 5727 5728 5729 5730 5730 5731 5732 5732 5732 5732 5732 5732 5731 5730 5729 5728 5727 5725 5723 5721 5719 5717 5715 5712 5710 5707 5704 5701
5681 5684 5688 5692 5696 5699 5702 5705 5708 5711 5713 5716 5718 5720 5722 5723 5724 5726 5726 5727 5728 5728 5728 5728 5728 5728 5728 5727 5726 5725 5723 5722 5720 5718 5716 5714 5712 5710 5707 5704 5701 5698 5695 5692
5680 5684 5688 5692 5695 5699 5702 5704 5707 5709 5712 5714 5716 5718 5720 5721 5722 5723 5724 5724 5725 5725 5725 5725 5724 5724 5723 5722 5720 5719 5717 5715 5713 5711 5709 5707 5704 5702 5699 5696 5693 5690 5687 5683
5681 5684 5688 5692 5695 5699 5701 5704 5706 5709 5711 5713 5715 5716 5718 5719 5720 5721 5721 5722 5722 5722 5721 5721 5720 5719 5718 5716 5714 5712 5711 5709 5706 5704 5701 5699 5696 5694 5691 5688 5685 5682 5679 5675
5682 5685 5689 5693 5696 5699 5702 5704 5706 5708 5710 5712 5714 5715 5716 5717 5718 5718 5718 5718 5718 5717 5717 5716 5715 5713 5712 5710 5708 5706 5704 5701 5699 5696 5694 5692 5689 5686 5683 5680 5677 5674 5671 5668
5684 5687 5691 5694 5697 5699 5702 5704 5706 5708 5710 5711 5712 5713 5714 5715 5715 5715 5715 5714 5713 5713 5712 5710 5709 5707 5705 5703 5701 5699 5697 5694 5692 5690 5687 5684 5682 5678 5676 5673 5670 5667 5664 5662